Warrenton, VA

6:41 PM EDT on May 23, 2018 (GMT -0400)
Warrenton

Weather History for KHWY - November, 2013

Change the Weather History Date:

Saturday, November 2, 2013

  Actual Average (KHEF) Record (KHEF)
Temperature  
Mean Temperature 57 °F -  
Max Temperature 72 °F 60 °F 78 °F (2001)
Min Temperature 40 °F 35 °F 26 °F (2000)
Degree Days  
Heating Degree Days 8    
Growing Degree Days 7 (Base 50)    
Moisture  
Dew Point 49 °F    
Average Humidity 81    
Maximum Humidity 100    
Minimum Humidity 43    
Precipitation  
Precipitation 0.00 in - - ()
Sea Level Pressure  
Sea Level Pressure 29.74 in    
Wind  
Wind Speed 2 mph (NW)    
Max Wind Speed 16 mph    
Max Gust Speed 21 mph    
Visibility 8 miles    
Events Fog    
Averages and records for this station are not official NWS values.
T = Trace of Precipitation, MM = Missing Value Source: NWS Daily Summary

Daily Weather History Graph

Daily Weather History Graph

Search for Another Location

Airport or City:

Astronomy

Nov. 02, 2013 Rise Set
Actual Time 7:38 AM EDT 6:09 PM EDT
Civil Twilight 7:11 AM EDT 6:36 PM EDT
Nautical Twilight 6:39 AM EDT 7:08 PM EDT
Astronomical Twilight 6:08 AM EDT 7:39 PM EDT
Moon 6:34 AM EDT (11/2) 5:39 PM EDT (11/2)
Length of Visible Light 11h 25m
Length of Day
10h 30m
Waning Crescent, 1% of the Moon is Illuminated
Nov 2
Waning Crescent
Nov 3
New
Nov 10
First Quarter
Nov 17
Full
Nov 25
Last Quarter

Hourly Weather History & Observations

Time (EDT) Temp. Dew Point Humidity Pressure Visibility Wind Dir Wind Speed Gust Speed Precip Events Conditions
12:15 AM 56.3 °F 56.3 °F 100% 29.66 in 2.0 mi Calm Calm - N/A   Overcast
12:35 AM 56.8 °F 56.8 °F 100% 29.67 in 5.0 mi Calm Calm - N/A   Scattered Clouds
12:55 AM 55.4 °F 55.4 °F 100% 29.67 in 3.0 mi Calm Calm - N/A   Mostly Cloudy
1:15 AM 55.4 °F 55.4 °F 100% 29.67 in 1.5 mi Calm Calm - N/A   Overcast
1:35 AM 55.6 °F 55.6 °F 100% 29.67 in 2.5 mi NE 3.5 mph - N/A   Scattered Clouds
1:55 AM 55.0 °F 55.0 °F 100% 29.67 in 10.0 mi Calm Calm - N/A   Clear
2:15 AM 53.2 °F 53.2 °F 100% 29.67 in 10.0 mi Calm Calm - N/A   Clear
2:35 AM 48.6 °F 48.6 °F 100% 29.67 in 1.2 mi Calm Calm - N/A   Mist
2:55 AM 48.7 °F 48.7 °F 100% 29.67 in 2.5 mi Calm Calm - N/A   Clear
3:15 AM 49.6 °F 49.6 °F 100% 29.67 in 0.2 mi Calm Calm - N/A Fog Fog
3:35 AM 48.7 °F 48.7 °F 100% 29.67 in 7.0 mi Calm Calm - N/A   Clear
3:55 AM 48.4 °F 48.4 °F 100% 29.67 in 10.0 mi Calm Calm - N/A   Mostly Cloudy
4:15 AM 49.1 °F 49.1 °F 100% 29.67 in 10.0 mi Calm Calm - N/A   Overcast
4:35 AM 50.5 °F 50.5 °F 100% 29.67 in 10.0 mi Calm Calm - N/A   Overcast
4:55 AM 49.1 °F 49.1 °F 100% 29.68 in 10.0 mi Calm Calm - N/A   Overcast
5:15 AM 49.5 °F 49.5 °F 100% 29.69 in 10.0 mi Calm Calm - N/A   Overcast
5:35 AM 48.0 °F 48.0 °F 100% 29.69 in 5.0 mi Calm Calm - N/A   Mostly Cloudy
5:55 AM 46.9 °F 46.9 °F 100% 29.69 in 0.2 mi Calm Calm - N/A Fog Fog
6:15 AM 45.5 °F 45.5 °F 100% 29.69 in 1.8 mi Calm Calm - N/A   Overcast
6:35 AM 48.7 °F 48.7 °F 100% 29.69 in 10.0 mi Calm Calm - N/A   Overcast
6:55 AM 48.4 °F 48.4 °F 100% 29.70 in 10.0 mi Calm Calm - N/A   Overcast
7:15 AM 48.9 °F 48.9 °F 100% 29.69 in 10.0 mi Calm Calm - N/A   Overcast
7:35 AM 48.7 °F 48.7 °F 100% 29.70 in 1.5 mi Calm Calm - N/A   Scattered Clouds
7:55 AM 47.5 °F 47.5 °F 100% 29.71 in 7.0 mi Calm Calm - N/A   Mostly Cloudy
8:15 AM 47.5 °F 47.5 °F 100% 29.71 in 7.0 mi Calm Calm - N/A   Mostly Cloudy
8:35 AM 46.4 °F 46.4 °F 100% 29.72 in 0.8 mi Calm Calm - N/A   Mostly Cloudy
8:55 AM 50.7 °F 50.7 °F 100% 29.73 in 7.0 mi Calm Calm - N/A   Clear
9:15 AM 53.8 °F 53.8 °F 100% 29.73 in 10.0 mi Calm Calm - N/A   Clear
9:35 AM 55.9 °F 55.9 °F 100% 29.73 in 10.0 mi SW 3.5 mph - N/A   Clear
9:55 AM 58.1 °F 57.2 °F 97% 29.73 in 10.0 mi Calm Calm - N/A   Clear
10:15 AM 60.8 °F 58.1 °F 91% 29.72 in 10.0 mi WSW 3.5 mph - N/A   Clear
10:35 AM 63.1 °F 58.8 °F 86% 29.72 in 10.0 mi Calm Calm - N/A   Clear
10:55 AM 64.4 °F 57.4 °F 78% 29.72 in 10.0 mi SW 3.5 mph - N/A   Clear
11:15 AM 66.4 °F 56.8 °F 71% 29.71 in 10.0 mi SW 4.6 mph - N/A   Clear
11:35 AM 67.5 °F 56.1 °F 67% 29.71 in 10.0 mi West 3.5 mph - N/A   Clear
11:55 AM 69.4 °F 53.4 °F 57% 29.71 in 10.0 mi SW 5.8 mph - N/A   Clear
1:15 PM 72.0 °F 52.0 °F 49% 29.69 in 10.0 mi SW 5.8 mph - N/A   Scattered Clouds
1:35 PM 70.3 °F 50.7 °F 50% 29.69 in 10.0 mi West 5.8 mph - N/A   Mostly Cloudy
1:55 PM 68.0 °F 50.7 °F 54% 29.69 in 10.0 mi Calm Calm - N/A   Mostly Cloudy
2:15 PM 70.5 °F 47.5 °F 44% 29.68 in 10.0 mi SW 3.5 mph - N/A   Scattered Clouds
2:35 PM 71.6 °F 48.0 °F 43% 29.67 in 10.0 mi West 8.1 mph - N/A   Scattered Clouds
2:55 PM 69.6 °F 48.4 °F 47% 29.68 in 10.0 mi West 5.8 mph - N/A   Mostly Cloudy
3:15 PM 68.5 °F 48.4 °F 49% 29.68 in 10.0 mi WNW 6.9 mph - N/A   Overcast
3:35 PM 63.5 °F 50.5 °F 63% 29.69 in 10.0 mi NNW 16.1 mph 20.7 mph N/A   Overcast
3:55 PM 62.8 °F 50.2 °F 63% 29.70 in 10.0 mi NNW 11.5 mph - N/A   Overcast
4:15 PM 62.6 °F 48.9 °F 61% 29.71 in 10.0 mi NNW 13.8 mph - N/A   Overcast
4:35 PM 62.6 °F 49.5 °F 62% 29.72 in 10.0 mi NNW 10.4 mph - N/A   Overcast
4:55 PM 62.1 °F 47.8 °F 60% 29.73 in 10.0 mi NNW 9.2 mph 17.3 mph N/A   Mostly Cloudy
5:15 PM 61.7 °F 46.6 °F 58% 29.74 in 10.0 mi NNW 11.5 mph 16.1 mph N/A   Mostly Cloudy
5:35 PM 61.2 °F 46.2 °F 58% 29.74 in 10.0 mi NNW 6.9 mph - N/A   Overcast
5:55 PM 60.4 °F 46.0 °F 59% 29.76 in 10.0 mi NNW 6.9 mph - N/A   Overcast
6:15 PM 60.4 °F 43.7 °F 54% 29.77 in 10.0 mi NNW 9.2 mph 17.3 mph N/A   Overcast
6:35 PM 59.7 °F 43.9 °F 56% 29.79 in 10.0 mi NW 9.2 mph - N/A   Overcast
6:55 PM 58.6 °F 43.3 °F 57% 29.80 in 10.0 mi NW 12.7 mph - N/A   Mostly Cloudy
7:15 PM 56.7 °F 43.0 °F 60% 29.82 in 10.0 mi NNW 8.1 mph - N/A   Mostly Cloudy
7:35 PM 55.8 °F 42.3 °F 60% 29.83 in 10.0 mi NNW 5.8 mph - N/A   Mostly Cloudy
7:55 PM 52.9 °F 42.1 °F 67% 29.84 in 10.0 mi NW 5.8 mph - N/A   Clear
8:15 PM 52.5 °F 42.8 °F 70% 29.85 in 10.0 mi NW 5.8 mph - N/A   Clear
8:35 PM 50.7 °F 42.8 °F 74% 29.85 in 10.0 mi NW 5.8 mph - N/A   Scattered Clouds
8:55 PM 52.2 °F 42.8 °F 70% 29.85 in 10.0 mi NW 5.8 mph - N/A   Scattered Clouds
9:15 PM 49.3 °F 42.3 °F 77% 29.86 in 10.0 mi NW 4.6 mph - N/A   Clear
9:35 PM 51.3 °F 42.4 °F 72% 29.87 in 10.0 mi NNW 4.6 mph - N/A   Clear
9:55 PM 52.2 °F 42.6 °F 70% 29.87 in 10.0 mi NW 4.6 mph - N/A   Clear
10:15 PM 50.9 °F 42.6 °F 73% 29.88 in 10.0 mi NW 6.9 mph - N/A   Clear
10:35 PM 50.5 °F 42.3 °F 73% 29.88 in 10.0 mi NW 5.8 mph - N/A   Clear
10:55 PM 44.8 °F 41.2 °F 87% 29.89 in 10.0 mi Calm Calm - N/A   Clear
11:15 PM 44.1 °F 41.7 °F 91% 29.90 in 10.0 mi Calm Calm - N/A   Clear
11:35 PM 42.8 °F 40.1 °F 90% 29.90 in 10.0 mi Calm Calm - N/A   Clear
11:55 PM 40.1 °F 39.2 °F 97% 29.90 in 10.0 mi Calm Calm - N/A   Clear